Spencer, IA

4:13 AM CDT on August 24, 2017 (GMT -0500)
Spencer Municipal

Weather History for KSPW - February, 2014

Change the Weather History Date:

Saturday, February 15, 2014

  Actual Average Record
Temperature  
Mean Temperature 18 °F -  
Max Temperature 39 °F 26 °F 52 °F (1976)
Min Temperature -2 °F 9 °F -16 °F (2007)
Degree Days  
Heating Degree Days 46    
Moisture  
Dew Point 15 °F    
Average Humidity 78    
Maximum Humidity 85    
Minimum Humidity 68    
Precipitation  
Precipitation 0.00 in - - ()
Sea Level Pressure  
Sea Level Pressure 29.94 in    
Wind  
Wind Speed 13 mph (West)    
Max Wind Speed 26 mph    
Max Gust Speed 32 mph    
Visibility 10 miles    
Events      
Averages and records for this station are not official NWS values.
T = Trace of Precipitation, MM = Missing Value Source: NWS Daily Summary

Daily Weather History Graph

Daily Weather History Graph

Search for Another Location

Airport or City:

Trip Planner

Search our weather history database for the weather conditions in past years. The results will help you decide how hot, cold, wet, or windy it might be!

Date:

Astronomy

Feb. 15, 2014 Rise Set
Actual Time 7:18 AM CST 5:51 PM CST
Civil Twilight 6:49 AM CST 6:21 PM CST
Nautical Twilight 6:16 AM CST 6:54 PM CST
Astronomical Twilight 5:43 AM CST 7:27 PM CST
Moon 6:55 PM CST (2/15) 7:15 AM CST (2/15)
Length of Visible Light 11h 31m
Length of Day
10h 33m
Waxing Gibbous, 99% of the Moon is Illuminated
Feb 15
Waxing Gibbous
Feb 22
Last Quarter
Mar 1
New
Mar 8
First Quarter
Mar 16
Full

Hourly Weather History & Observations

Time (CST) Temp. Windchill Dew Point Humidity Pressure Visibility Wind Dir Wind Speed Gust Speed Precip Events Conditions
12:53 AM -2.9 °F - -8.0 °F 79% 30.09 in 10.0 mi Calm Calm - N/A   Clear
1:53 AM -2.0 °F - -7.1 °F 79% 30.08 in 10.0 mi Calm Calm - N/A   Clear
2:53 AM 1.9 °F -11.8 °F -2.9 °F 80% 30.04 in 10.0 mi SSE 8.1 mph - N/A   Clear
3:53 AM 6.1 °F -7.8 °F -0.0 °F 76% 30.00 in 10.0 mi SSE 9.2 mph - N/A   Clear
4:53 AM 7.0 °F -7.5 °F 1.0 °F 77% 30.00 in 10.0 mi SE 10.4 mph - N/A   Clear
5:53 AM 10.0 °F -5.2 °F 3.0 °F 73% 29.98 in 10.0 mi South 12.7 mph - N/A   Clear
6:53 AM 12.9 °F -3.9 °F 5.0 °F 71% 29.93 in 10.0 mi SSE 17.3 mph - N/A   Mostly Cloudy
7:53 AM 14.0 °F -4.7 °F 8.1 °F 77% 29.88 in 10.0 mi SSE 23.0 mph - N/A   Overcast
8:53 AM 17.1 °F 1.0 °F 12.0 °F 81% 29.86 in 7.0 mi South 18.4 mph 26.5 mph 0.00 in   Overcast
9:53 AM 21.0 °F 6.2 °F 16.0 °F 81% 29.86 in 10.0 mi South 18.4 mph - 0.00 in   Overcast
10:53 AM 24.1 °F 11.5 °F 18.0 °F 77% 29.85 in 10.0 mi SSW 15.0 mph - 0.00 in   Overcast
11:53 AM 28.0 °F 14.9 °F 21.9 °F 78% 29.80 in 10.0 mi SSW 19.6 mph - N/A   Clear
12:53 PM 32.0 °F 20.1 °F 25.0 °F 75% 29.76 in 10.0 mi SSW 19.6 mph - N/A   Clear
1:53 PM 35.1 °F 25.2 °F 28.0 °F 76% 29.74 in 10.0 mi SW 16.1 mph - N/A   Clear
2:53 PM 39.9 °F 29.5 °F 30.0 °F 68% 29.74 in 10.0 mi West 24.2 mph 29.9 mph N/A   Mostly Cloudy
3:37 PM 37.9 °F 26.3 °F 30.0 °F 73% 29.72 in 10.0 mi WNW 26.5 mph - N/A   Overcast
3:53 PM 37.0 °F 25.4 °F 28.9 °F 73% 29.80 in 10.0 mi WNW 25.3 mph 32.2 mph N/A   Overcast
4:53 PM 34.0 °F 21.5 °F 27.0 °F 75% 29.86 in 10.0 mi NNW 24.2 mph 31.1 mph N/A   Overcast
5:53 PM 30.9 °F 17.8 °F 25.0 °F 79% 29.94 in 10.0 mi NNW 23.0 mph - N/A   Overcast
6:53 PM 28.9 °F 16.1 °F 23.0 °F 78% 29.99 in 10.0 mi NNW 19.6 mph - N/A   Overcast
7:00 PM 28.9 °F 16.1 °F 23.0 °F 78% 29.93 in 10.0 mi North 19.6 mph - N/A   Overcast
7:53 PM 27.0 °F 12.2 °F 21.9 °F 81% 30.04 in 10.0 mi NNW 24.2 mph - N/A   Overcast
8:53 PM 25.0 °F 10.9 °F 19.9 °F 81% 30.07 in 10.0 mi NW 19.6 mph - 0.00 in   Overcast
9:17 PM 24.1 °F 9.4 °F 19.0 °F 81% 30.01 in 10.0 mi NNW 20.7 mph - N/A   Overcast
9:28 PM 23.0 °F 7.6 °F 18.0 °F 81% 30.00 in 10.0 mi North 21.9 mph - N/A   Overcast
9:53 PM 21.0 °F 5.4 °F 17.1 °F 85% 30.09 in 10.0 mi NNW 20.7 mph - N/A   Overcast
10:53 PM 19.0 °F 4.0 °F 15.1 °F 85% 30.11 in 10.0 mi North 17.3 mph - N/A   Overcast
11:14 PM 19.0 °F 5.6 °F 15.1 °F 85% 30.05 in 9.0 mi NNW 13.8 mph - N/A   Overcast
11:53 PM 18.0 °F 3.6 °F 12.9 °F 81% 30.11 in 8.0 mi NNW 15.0 mph - N/A   Overcast